[[{"header":{"parameterUnit":"m.s-1","parameterCategory":1,"la1":30.2991,"la2":30.254,"lo1":-89.0895,"lo2":-89.0444,"dy":0.0017,"dx":0.0017,"nx":28,"ny":28,"refTime":"2023-08-30T09:00:00:Z","depth":0,"parameterNumber":2,"parameterNumberName":"U-component_of_WINDS"},"data":[0,0,0,0,0,0,0,0,0,0,0,0,0,0,0,0,0,0,0,0,0,0,0,0,0,0,0,0,0,0,0,0,0,0,0,0,0,0,0,0,0,0,0,0,0,0,0,0,0,0,0,0,0,0,0,0,0,0,0.8523,0.8523,0,0.8567,0.8568,0.8568,0.8586,0.8586,0.8586,0.8586,0.8635,0.8636,0.8637,0,0,0,0,0,0,0,0,0,0,0,0,0,0.8459,0.846,0.8523,0.8523,0.8524,0.8567,0.8568,0.8568,0.8586,0.8586,0.8586,0.8586,0.8634,0.8636,0.8637,0,0,0,0,0,0,0,0,0,0,0,0,0,0.8493,0.846,0.8523,0.8538,0.854,0.8567,0.8568,0.8568,0.8586,0.8586,0.8586,0.8586,0.8634,0.8636,0.8638,0.8654,0,0,0.8644,0.8645,0,0,0,0,0,0,0,0,0.8491,0.8496,0.8535,0.8537,0.8539,0.8571,0.8563,0.8597,0.8586,0.8569,0.8586,0.8586,0.8614,0.8617,0.8626,0.8656,0.8658,0.8644,0.8645,0.8646,0.8647,0,0,0,0,0,0,0,0.8489,0.8494,0.854,0.8536,0.8538,0.8544,0.8549,0.8569,0.8592,0.857,0.8572,0.8576,0.8615,0.8624,0.8627,0.8659,0.8644,0.8646,0.8647,0.8648,0.8707,0.8708,0,0,0,0,0,0,0.8483,0.8492,0.8539,0.8542,0.8514,0.8545,0.8551,0.8561,0.8591,0.8596,0.8576,0.8577,0.8621,0.8625,0.8629,0.8652,0.8646,0.8648,0.865,0.8707,0.8707,0.8708,0,0,0,0,0,0,0.8482,0.8487,0.8537,0.8517,0.8524,0.8547,0.8558,0.8562,0.8571,0.8596,0.8601,0.8582,0.8621,0.8626,0.8648,0.8654,0.8649,0.8651,0.8707,0.8707,0.8708,0.8696,0,0,0,0,0,0,0.848,0.8487,0.8492,0.8517,0.8525,0.8553,0.8558,0.8563,0.8574,0.8575,0.8602,0.8606,0.8621,0.8645,0.865,0.8656,0.8653,0.8706,0.8707,0.8708,0.8696,0.8696,0.8696,0,0,0,0,0,0.8478,0.8487,0.8492,0.8497,0.8531,0.8554,0.8558,0.8574,0.8574,0.8581,0.8597,0.8606,0.8652,0.8647,0.8653,0.866,0.8706,0.8707,0.8707,0.8696,0.8696,0.8696,0,0,0,0,0,0,0.8462,0.849,0.8496,0.8513,0.8531,0.8557,0.8565,0.8573,0.8591,0.8592,0.8611,0.8617,0.8638,0.8651,0.8645,0.8679,0.868,0.8682,0.8669,0.8669,0.8669,0.8666,0.8655,0,0,0,0,0,0.8461,0.8475,0.8499,0.8513,0.8521,0.8541,0.8552,0.8562,0.8582,0.8589,0.8607,0.8627,0.8646,0.8659,0.8678,0.8698,0.8705,0.8706,0.8706,0.8706,0.8708,0.8722,0.8723,0.871,0.871,0.871,0,0,0.8458,0.8475,0.8483,0.851,0.8525,0.8541,0.8547,0.8564,0.8576,0.8592,0.8613,0.8628,0.8651,0.8673,0.8683,0.8685,0.8713,0.8707,0.8707,0.8708,0.8723,0.8724,0.8725,0.8711,0.8711,0.871,0,0,0.8461,0.8475,0.8488,0.8503,0.8525,0.8539,0.8542,0.8567,0.8577,0.8599,0.8611,0.8628,0.866,0.8677,0.869,0.8702,0.8711,0.8708,0.8708,0.8721,0.8722,0.8723,0.8729,0.8731,0.8709,0.8709,0.8709,0,0.8455,0.8478,0.8494,0.851,0.8522,0.8537,0.8552,0.8566,0.8594,0.8603,0.8604,0.8646,0.8663,0.8689,0.8693,0.8702,0.8708,0.8705,0.8721,0.8722,0.8723,0.8729,0.8731,0.8709,0.8709,0.8709,0.8709,0,0.847,0.8487,0.8495,0.8521,0.8534,0.8549,0.8569,0.8582,0.8592,0.8606,0.863,0.8651,0.8675,0.8683,0.8693,0.8712,0.8712,0.8717,0.8718,0.8724,0.873,0.8732,0.8708,0.8708,0.8709,0.8709,0,0,0.8463,0.8499,0.8502,0.8514,0.8541,0.8555,0.8572,0.8595,0.8606,0.8626,0.8642,0.867,0.8675,0.869,0.8703,0.8714,0.8725,0.8718,0.8719,0.8719,0.8749,0.8746,0.8748,0.8731,0.8732,0.8732,0.8748,0,0.847,0.85,0.8516,0.854,0.8556,0.8572,0.8587,0.8606,0.8621,0.8639,0.8656,0.8676,0.868,0.869,0.8702,0.8721,0.8731,0.872,0.8748,0.8749,0.8742,0.8751,0.8746,0.876,0.875,0.875,0.8751,0,0.8482,0.8501,0.8526,0.8553,0.856,0.8573,0.8597,0.8613,0.8637,0.8647,0.8664,0.8677,0.8698,0.8699,0.873,0.8722,0.8735,0.8746,0.8747,0.875,0.875,0.8755,0.8764,0.8767,0.8754,0.8754,0.8754,0,0.8475,0.8507,0.8527,0.8537,0.8569,0.8578,0.8592,0.8615,0.8629,0.865,0.866,0.8684,0.8697,0.8717,0.8737,0.8735,0.8766,0.8768,0.8777,0.8777,0.8782,0.8782,0.8795,0.879,0.879,0.879,0.879,0,0.8482,0.8497,0.8524,0.8536,0.8555,0.8574,0.8592,0.8608,0.8629,0.8646,0.8661,0.8677,0.8703,0.8723,0.8739,0.8763,0.8769,0.8779,0.8783,0.8778,0.8776,0.8786,0.8786,0.8791,0.8791,0.879,0.879,0,0.8477,0.8496,0.8518,0.8547,0.8554,0.8567,0.8592,0.8606,0.8622,0.8644,0.865,0.8676,0.8701,0.8723,0.8755,0.8766,0.8791,0.8796,0.8783,0.8785,0.8793,0.8793,0.8813,0.8818,0.8809,0.8809,0.881,0,0.848,0.8491,0.8521,0.8533,0.8547,0.8566,0.858,0.8601,0.8615,0.8644,0.8655,0.8681,0.8702,0.8741,0.8764,0.879,0.8796,0.8802,0.88,0.8795,0.8798,0.8797,0.8799,0.8802,0.8801,0.8801,0.8801,0,0.8483,0.8492,0.8511,0.8534,0.855,0.857,0.859,0.8599,0.8625,0.8641,0.8665,0.8682,0.8716,0.8742,0.8771,0.8788,0.88,0.8802,0.8806,0.88,0.8792,0.8798,0.8783,0.8801,0.8801,0.8801,0.8801,0.8801,0.8482,0.8494,0.8518,0.8539,0.8557,0.8575,0.859,0.8608,0.8629,0.8657,0.8669,0.8695,0.8721,0.8761,0.8778,0.88,0.8802,0.8807,0.8809,0.881,0.8809,0.8789,0.8806,0.8806,0.8806,0.8806,0.8806,0,0.8487,0.8503,0.8523,0.855,0.8568,0.8577,0.86,0.8615,0.8637,0.866,0.8681,0.8711,0.8737,0.8763,0.8791,0.8804,0.881,0.881,0.881,0.8814,0.8805,0.8799,0.8805,0.8805,0.8805,0.8805,0.8805,0.8805,0.8491,0.8513,0.8525,0.8557,0.8573,0.8598,0.8611,0.8629,0.8648,0.868,0.8701,0.8718,0.8743,0.8773,0.8798,0.8806,0.8816,0.8815,0.8824,0.8815,0.8814,0.8814,0.8809,0.8816,0.8816,0.8831,0.8831,0.8831]},{"header":{"parameterUnit":"m.s-1","parameterCategory":1,"la1":30.2991,"la2":30.254,"lo1":-89.0895,"lo2":-89.0444,"dy":0.0017,"dx":0.0017,"nx":28,"ny":28,"refTime":"2023-08-30T09:00:00:Z","depth":0,"parameterNumber":3,"parameterNumberName":"V-component_of_WINDS"},"data":[0,0,0,0,0,0,0,0,0,0,0,0,0,0,0,0,0,0,0,0,0,0,0,0,0,0,0,0,0,0,0,0,0,0,0,0,0,0,0,0,0,0,0,0,0,0,0,0,0,0,0,0,0,0,0,0,0,0,-5.4537,-5.4538,0,-5.4631,-5.4632,-5.4633,-5.4656,-5.4655,-5.4654,-5.4654,-5.4743,-5.4746,-5.4749,0,0,0,0,0,0,0,0,0,0,0,0,0,-5.4373,-5.4376,-5.4537,-5.4538,-5.454,-5.4631,-5.4632,-5.4633,-5.4656,-5.4655,-5.4654,-5.4654,-5.4742,-5.4745,-5.4749,0,0,0,0,0,0,0,0,0,0,0,0,0,-5.4453,-5.4377,-5.4537,-5.4562,-5.4565,-5.463,-5.4632,-5.4633,-5.4656,-5.4655,-5.4654,-5.4653,-5.4741,-5.4745,-5.4749,-5.4794,0,0,-5.4763,-5.4765,0,0,0,0,0,0,0,0,-5.4449,-5.4459,-5.4557,-5.456,-5.4564,-5.4631,-5.4607,-5.4687,-5.4656,-5.4621,-5.4654,-5.4653,-5.4706,-5.4713,-5.4732,-5.4798,-5.4802,-5.4763,-5.4766,-5.4768,-5.4769,0,0,0,0,0,0,0,-5.4443,-5.4455,-5.4574,-5.4558,-5.4563,-5.4567,-5.4577,-5.4622,-5.4667,-5.4624,-5.4626,-5.4637,-5.4707,-5.4728,-5.4735,-5.4804,-5.4763,-5.4767,-5.477,-5.4771,-5.4913,-5.4914,0,0,0,0,0,0,-5.4434,-5.445,-5.4571,-5.4577,-5.4503,-5.4571,-5.4582,-5.461,-5.4667,-5.4675,-5.4638,-5.4638,-5.4721,-5.4729,-5.4738,-5.4796,-5.4768,-5.4772,-5.4774,-5.4912,-5.4913,-5.4915,0,0,0,0,0,0,-5.443,-5.4444,-5.4567,-5.4514,-5.453,-5.4574,-5.4606,-5.4612,-5.4633,-5.4677,-5.4685,-5.4651,-5.4721,-5.4732,-5.4781,-5.4799,-5.4774,-5.4778,-5.4911,-5.4912,-5.4914,-5.4911,0,0,0,0,0,0,-5.4426,-5.4443,-5.4462,-5.4515,-5.4533,-5.461,-5.4607,-5.4615,-5.4641,-5.4642,-5.4691,-5.4699,-5.4721,-5.4774,-5.4785,-5.4804,-5.4781,-5.4909,-5.4911,-5.4913,-5.4909,-5.4912,-5.4914,0,0,0,0,0,-5.442,-5.4455,-5.4462,-5.4477,-5.4557,-5.4611,-5.4622,-5.4648,-5.4643,-5.4661,-5.469,-5.4697,-5.4795,-5.4779,-5.4792,-5.4812,-5.4908,-5.4911,-5.4913,-5.4908,-5.4911,-5.4914,0,0,0,0,0,0,-5.44,-5.4462,-5.4471,-5.4525,-5.4563,-5.4615,-5.4639,-5.4651,-5.4689,-5.4688,-5.4717,-5.4728,-5.4776,-5.4799,-5.478,-5.486,-5.4851,-5.4857,-5.4843,-5.4847,-5.4849,-5.4842,-5.4785,0,0,0,0,0,-5.4402,-5.4443,-5.4494,-5.4537,-5.4556,-5.4594,-5.4619,-5.4636,-5.4676,-5.4691,-5.4723,-5.476,-5.4799,-5.4824,-5.4862,-5.4913,-5.4924,-5.4933,-5.4936,-5.4938,-5.4942,-5.4971,-5.4976,-5.4923,-5.4923,-5.4923,0,0,-5.4406,-5.4446,-5.4469,-5.4534,-5.4566,-5.4606,-5.4607,-5.4649,-5.4679,-5.4697,-5.4747,-5.4771,-5.4814,-5.4865,-5.4888,-5.4885,-5.4959,-5.4941,-5.4942,-5.4945,-5.4974,-5.4979,-5.4984,-5.4925,-5.4924,-5.4924,0,0,-5.4436,-5.4469,-5.451,-5.4542,-5.4591,-5.4617,-5.4626,-5.4677,-5.4696,-5.4747,-5.4762,-5.4796,-5.4863,-5.4893,-5.4917,-5.496,-5.4969,-5.4972,-5.4985,-5.5013,-5.5017,-5.5021,-5.5037,-5.5043,-5.4976,-5.4976,-5.4976,0,-5.4434,-5.4497,-5.4528,-5.457,-5.4599,-5.462,-5.466,-5.4689,-5.4747,-5.4766,-5.4762,-5.4848,-5.4877,-5.4936,-5.4947,-5.4966,-5.4977,-5.4966,-5.5015,-5.5019,-5.5023,-5.5039,-5.5044,-5.4976,-5.4976,-5.4976,-5.4976,0,-5.4494,-5.4537,-5.4563,-5.4623,-5.4654,-5.4694,-5.473,-5.4758,-5.4773,-5.4799,-5.4851,-5.4888,-5.4935,-5.495,-5.4964,-5.5011,-5.5008,-5.5009,-5.5001,-5.5028,-5.5043,-5.5049,-5.4976,-5.4976,-5.4976,-5.4976,0,0,-5.4511,-5.4589,-5.4598,-5.4626,-5.4683,-5.4716,-5.4758,-5.4807,-5.483,-5.487,-5.4905,-5.4963,-5.4965,-5.4992,-5.501,-5.5035,-5.5068,-5.5033,-5.5034,-5.5039,-5.5123,-5.5123,-5.5129,-5.5074,-5.5075,-5.5076,-5.512,0,-5.4548,-5.4626,-5.4656,-5.472,-5.4761,-5.4782,-5.4819,-5.4857,-5.4882,-5.4919,-5.4947,-5.4987,-5.4987,-5.5004,-5.5029,-5.5058,-5.5085,-5.5056,-5.5106,-5.5108,-5.5096,-5.5137,-5.5136,-5.5175,-5.5126,-5.5127,-5.5128,0,-5.4601,-5.4644,-5.4713,-5.4767,-5.4785,-5.4818,-5.4866,-5.4901,-5.4945,-5.4962,-5.4994,-5.501,-5.5054,-5.5044,-5.5105,-5.5084,-5.5106,-5.5124,-5.5126,-5.5132,-5.512,-5.5144,-5.5188,-5.5195,-5.5137,-5.5137,-5.5136,0,-5.4608,-5.4683,-5.4735,-5.4758,-5.4821,-5.4844,-5.4871,-5.4914,-5.4942,-5.4984,-5.5002,-5.5047,-5.5072,-5.5105,-5.5133,-5.5123,-5.5192,-5.5183,-5.5206,-5.5205,-5.5219,-5.5218,-5.5268,-5.5233,-5.5233,-5.5233,-5.5233,0,-5.4646,-5.4687,-5.474,-5.4771,-5.4818,-5.4851,-5.4896,-5.4924,-5.4963,-5.4999,-5.5019,-5.5053,-5.5088,-5.5126,-5.5147,-5.5195,-5.5205,-5.5219,-5.5225,-5.5218,-5.5216,-5.5233,-5.5231,-5.5235,-5.5234,-5.5234,-5.5234,0,-5.4662,-5.4699,-5.4756,-5.4813,-5.4828,-5.486,-5.4908,-5.4939,-5.4967,-5.5013,-5.5025,-5.5067,-5.5113,-5.5145,-5.5202,-5.5217,-5.5268,-5.5273,-5.5254,-5.5257,-5.5278,-5.5276,-5.5341,-5.5352,-5.5309,-5.5309,-5.531,0,-5.4684,-5.4716,-5.4778,-5.4806,-5.4834,-5.4877,-5.4907,-5.4941,-5.4971,-5.5024,-5.5049,-5.5096,-5.5136,-5.5208,-5.5242,-5.5287,-5.5293,-5.5313,-5.5299,-5.5292,-5.5294,-5.5292,-5.5296,-5.5315,-5.5315,-5.5315,-5.5315,0,-5.4719,-5.4737,-5.478,-5.4831,-5.4867,-5.4908,-5.4948,-5.4969,-5.501,-5.5043,-5.5091,-5.5123,-5.5183,-5.523,-5.5278,-5.5304,-5.5317,-5.532,-5.5327,-5.5321,-5.5309,-5.5317,-5.526,-5.5318,-5.5317,-5.5317,-5.5317,-5.5317,-5.4739,-5.477,-5.4819,-5.4868,-5.4903,-5.4941,-5.4974,-5.5007,-5.5049,-5.5103,-5.512,-5.517,-5.5214,-5.528,-5.5307,-5.5346,-5.5345,-5.5355,-5.5358,-5.5361,-5.5361,-5.5303,-5.5355,-5.5355,-5.5355,-5.5355,-5.5355,0,-5.4776,-5.481,-5.4854,-5.4913,-5.4951,-5.4962,-5.5008,-5.5039,-5.5084,-5.5125,-5.5165,-5.5221,-5.5267,-5.5306,-5.5354,-5.5378,-5.5384,-5.5389,-5.5387,-5.5393,-5.5359,-5.5348,-5.5383,-5.5383,-5.5383,-5.5383,-5.5383,-5.5383,-5.48,-5.4854,-5.4878,-5.4949,-5.4981,-5.5034,-5.5059,-5.5094,-5.5127,-5.519,-5.523,-5.5256,-5.5297,-5.5348,-5.539,-5.54,-5.5417,-5.542,-5.5432,-5.5399,-5.5396,-5.5392,-5.5382,-5.5423,-5.5423,-5.5463,-5.5463,-5.5463]}]]